Auburn, IN

1:39 AM EST on February 08, 2016 (GMT -0500)
Auburn

Weather History for KGWB - May, 2013

Change the Weather History Date:

Friday, May 24, 2013

  Actual Average (KFWA) Record (KFWA)
Temperature  
Mean Temperature 52 °F 63 °F  
Max Temperature 62 °F 74 °F 91 °F (2007)
Min Temperature 41 °F 52 °F 36 °F (1963)
Degree Days  
Heating Degree Days 14 4  
Month to date heating degree days 167  
Since 1 July heating degree days 6049  
Cooling Degree Days 0 2  
Month to date cooling degree days 29  
Year to date cooling degree days 37  
Growing Degree Days 2 (Base 50)    
Moisture  
Dew Point 36 °F    
Average Humidity 59    
Maximum Humidity 82    
Minimum Humidity 32    
Precipitation  
Precipitation 0.00 in 0.15 in 1.46 in (1971)
Month to date precipitation 3.12  
Year to date precipitation 13.65  
Snow  
Snow 0.00 in 0.00 in T in (1925)
Month to date snowfall 0.0  
Since 1 July snowfall 33.5  
Snow Depth -    
Sea Level Pressure  
Sea Level Pressure 30.29 in    
Wind  
Wind Speed 7 mph (NNW)    
Max Wind Speed 14 mph    
Max Gust Speed 20 mph    
Visibility 10 miles    
Events      
T = Trace of Precipitation, MM = Missing Value Source: NWS Daily Summary

Daily Weather History Graph

Daily Weather History Graph

Search for Another Location

Airport or City:

Trip Planner

Search our weather history database for the weather conditions in past years. The results will help you decide how hot, cold, wet, or windy it might be!

Date:

Astronomy

May. 24, 2013 Rise Set
Actual Time 6:13 AM EDT 9:00 PM EDT
Civil Twilight 5:41 AM EDT 9:33 PM EDT
Nautical Twilight 5:00 AM EDT 10:14 PM EDT
Astronomical Twilight 4:14 AM EDT 11:01 PM EDT
Moon 8:41 PM EDT (5/24) 5:45 AM EDT (5/24)
Length of Visible Light 15h 51m
Length of Day
14h 46m
Full, 100% of the Moon is Illuminated
May 24
Full
May 25
Full
May 31
Last Quarter
Jun 8
New
Jun 16
First Quarter

Hourly Weather History & Observations

Time (EDT) Temp. Windchill Dew Point Humidity Pressure Visibility Wind Dir Wind Speed Gust Speed Precip Events Conditions
12:15 AM 48.2 °F - 42.8 °F 82% 30.18 in 10.0 mi North 8.1 mph - N/A   Overcast
12:35 AM 48.2 °F - 41.0 °F 76% 30.18 in 10.0 mi North 9.2 mph - N/A   Overcast
12:55 AM 48.2 °F - 41.0 °F 76% 30.19 in 10.0 mi North 5.8 mph - N/A   Overcast
1:15 AM 48.2 °F - 41.0 °F 76% 30.19 in 10.0 mi North 6.9 mph - N/A   Overcast
1:35 AM 46.4 °F 41.5 °F 41.0 °F 81% 30.20 in 10.0 mi North 10.4 mph - N/A   Overcast
1:55 AM 46.4 °F 42.4 °F 41.0 °F 81% 30.20 in 10.0 mi North 8.1 mph - N/A   Overcast
2:15 AM 46.4 °F 42.9 °F 41.0 °F 81% 30.20 in 10.0 mi North 6.9 mph - N/A   Overcast
2:35 AM 46.4 °F 43.5 °F 39.2 °F 76% 30.20 in 10.0 mi North 5.8 mph - N/A   Overcast
2:55 AM 46.4 °F 43.5 °F 39.2 °F 76% 30.20 in 10.0 mi NNE 5.8 mph - N/A   Overcast
3:15 AM 46.4 °F 45.2 °F 39.2 °F 76% 30.20 in 10.0 mi North 3.5 mph - N/A   Mostly Cloudy
3:35 AM 44.6 °F 43.1 °F 39.2 °F 81% 30.21 in 10.0 mi NNW 3.5 mph - N/A   Mostly Cloudy
3:55 AM 44.6 °F 42.2 °F 39.2 °F 81% 30.22 in 10.0 mi NNW 4.6 mph - N/A   Scattered Clouds
4:35 AM 44.6 °F 39.7 °F 37.4 °F 76% 30.23 in 10.0 mi North 9.2 mph - N/A   Scattered Clouds
4:55 AM 44.6 °F 40.7 °F 35.6 °F 71% 30.24 in 10.0 mi NNW 6.9 mph - N/A   Scattered Clouds
5:15 AM 42.8 °F 38.6 °F 35.6 °F 76% 30.24 in 10.0 mi NNW 6.9 mph - N/A   Clear
5:35 AM 42.8 °F 38.0 °F 35.6 °F 76% 30.25 in 10.0 mi NNW 8.1 mph - N/A   Clear
5:55 AM 41.0 °F 38.0 °F 35.6 °F 81% 30.25 in 10.0 mi NNW 4.6 mph - N/A   Clear
6:15 AM 41.0 °F 37.1 °F 35.6 °F 81% 30.26 in 10.0 mi NNW 5.8 mph - N/A   Clear
6:35 AM 41.0 °F 38.0 °F 33.8 °F 76% 30.26 in 10.0 mi North 4.6 mph - N/A   Clear
6:55 AM 41.0 °F 38.0 °F 33.8 °F 76% 30.27 in 10.0 mi North 4.6 mph - N/A   Clear
7:15 AM 41.0 °F 37.1 °F 33.8 °F 76% 30.29 in 10.0 mi NNW 5.8 mph - N/A   Clear
7:35 AM 42.8 °F 38.0 °F 33.8 °F 70% 30.30 in 10.0 mi NNW 8.1 mph - N/A   Clear
7:55 AM 42.8 °F 38.0 °F 35.6 °F 76% 30.30 in 10.0 mi North 8.1 mph - N/A   Clear
8:15 AM 42.8 °F 38.0 °F 35.6 °F 76% 30.31 in 10.0 mi North 8.1 mph - N/A   Clear
8:35 AM 44.6 °F 39.7 °F 35.6 °F 71% 30.32 in 10.0 mi North 9.2 mph - N/A   Clear
9:15 AM 46.4 °F 42.9 °F 35.6 °F 66% 30.33 in 10.0 mi North 6.9 mph - N/A   Clear
9:35 AM 46.4 °F 42.9 °F 37.4 °F 71% 30.34 in 10.0 mi NNW 6.9 mph - N/A   Scattered Clouds
9:55 AM 48.2 °F - 37.4 °F 66% 30.35 in 10.0 mi NE 5.8 mph - N/A   Scattered Clouds
10:15 AM 50.0 °F - 37.4 °F 62% 30.35 in 10.0 mi NW 9.2 mph - N/A   Mostly Cloudy
10:35 AM 50.0 °F - 37.4 °F 62% 30.35 in 10.0 mi NW 6.9 mph - N/A   Scattered Clouds
10:55 AM 50.0 °F - 35.6 °F 58% 30.35 in 10.0 mi North 8.1 mph - N/A   Scattered Clouds
11:15 AM 51.8 °F - 35.6 °F 54% 30.35 in 10.0 mi North 5.8 mph - N/A   Scattered Clouds
11:35 AM 51.8 °F - 33.8 °F 50% 30.35 in 10.0 mi NNW 8.1 mph 16.1 mph N/A   Clear
11:55 AM 53.6 °F - 35.6 °F 51% 30.36 in 10.0 mi NW 8.1 mph - N/A   Clear
12:15 PM 53.6 °F - 33.8 °F 47% 30.36 in 10.0 mi NW 6.9 mph 19.6 mph N/A   Clear
12:35 PM 55.4 °F - 33.8 °F 44% 30.36 in 10.0 mi NNW 8.1 mph - N/A   Clear
12:55 PM 55.4 °F - 33.8 °F 44% 30.35 in 10.0 mi NW 9.2 mph 16.1 mph N/A   Clear
1:15 PM 55.4 °F - 33.8 °F 44% 30.35 in 10.0 mi NNW 8.1 mph - N/A   Clear
1:35 PM 57.2 °F - 35.6 °F 44% 30.35 in 10.0 mi NW 8.1 mph - N/A   Clear
1:55 PM 59.0 °F - 33.8 °F 39% 30.35 in 10.0 mi NW 8.1 mph 18.4 mph N/A   Clear
2:15 PM 59.0 °F - 33.8 °F 39% 30.35 in 10.0 mi NW 8.1 mph - N/A   Clear
2:35 PM 59.0 °F - 33.8 °F 39% 30.35 in 10.0 mi NW 11.5 mph 18.4 mph N/A   Clear
2:55 PM 60.8 °F - 33.8 °F 36% 30.35 in 10.0 mi NW 12.7 mph 17.3 mph N/A   Clear
3:15 PM 60.8 °F - 32.0 °F 34% 30.35 in 10.0 mi NNW 13.8 mph 18.4 mph N/A   Clear
3:35 PM 60.8 °F - 33.8 °F 36% 30.34 in 10.0 mi WNW 6.9 mph 16.1 mph N/A   Clear
3:55 PM 60.8 °F - 32.0 °F 34% 30.33 in 10.0 mi North 11.5 mph 18.4 mph N/A   Clear
4:15 PM 62.6 °F - 32.0 °F 32% 30.33 in 10.0 mi WNW 10.4 mph - N/A   Clear
4:35 PM 62.6 °F - 32.0 °F 32% 30.33 in 10.0 mi NW 11.5 mph 17.3 mph N/A   Clear
4:55 PM 62.6 °F - 33.8 °F 34% 30.32 in 10.0 mi North 8.1 mph - N/A   Clear
5:15 PM 62.6 °F - 33.8 °F 34% 30.32 in 10.0 mi North 10.4 mph 17.3 mph N/A   Clear
5:35 PM 62.6 °F - 32.0 °F 32% 30.32 in 10.0 mi NW 8.1 mph - N/A   Clear
5:55 PM 62.6 °F - 32.0 °F 32% 30.31 in 10.0 mi North 6.9 mph - N/A   Clear
6:15 PM 62.6 °F - 32.0 °F 32% 30.31 in 10.0 mi NNW 9.2 mph - N/A   Clear
6:35 PM 62.6 °F - 32.0 °F 32% 30.30 in 10.0 mi NW 6.9 mph - N/A   Clear
6:55 PM 62.6 °F - 32.0 °F 32% 30.29 in 10.0 mi NNE 9.2 mph - N/A   Clear
7:15 PM 60.8 °F - 32.0 °F 34% 30.28 in 10.0 mi North 8.1 mph - N/A   Clear
7:35 PM 60.8 °F - 32.0 °F 34% 30.28 in 10.0 mi North 5.8 mph - N/A   Clear
7:55 PM 60.8 °F - 32.0 °F 34% 30.28 in 10.0 mi NNW 4.6 mph - N/A   Clear
8:15 PM 59.0 °F - 33.8 °F 39% 30.28 in 10.0 mi North 4.6 mph - N/A   Clear
8:35 PM 57.2 °F - 35.6 °F 44% 30.28 in 10.0 mi Calm Calm - N/A   Clear
8:55 PM 55.4 °F - 37.4 °F 51% 30.28 in 10.0 mi Calm Calm - N/A   Clear
9:15 PM 53.6 °F - 37.4 °F 54% 30.29 in 10.0 mi Calm Calm - N/A   Clear
9:35 PM 50.0 °F - 41.0 °F 71% 30.29 in 10.0 mi Calm Calm - N/A   Clear
9:55 PM 50.0 °F - 39.2 °F 66% 30.30 in 10.0 mi Calm Calm - N/A   Clear
10:15 PM 48.2 °F - 41.0 °F 76% 30.31 in 10.0 mi Calm Calm - N/A   Clear
10:35 PM 48.2 °F - 39.2 °F 71% 30.32 in 10.0 mi Calm Calm - N/A   Clear
10:55 PM 46.4 °F - 41.0 °F 81% 30.33 in 10.0 mi Calm Calm - N/A   Clear
11:15 PM 46.4 °F - 39.2 °F 76% 30.33 in 10.0 mi Calm Calm - N/A   Clear
11:35 PM 46.4 °F - 37.4 °F 71% 30.34 in 10.0 mi Calm Calm - N/A   Clear
11:55 PM 44.6 °F - 37.4 °F 76% 30.35 in 10.0 mi Calm Calm - N/A   Clear